(233873) = 2005 AO52 = 2008 WG25

Discovered at Catalina on 2008-11-18 by CSS.

Orbit

Orbit type: Main Belt

Note: WebGL enabled browser required.

epoch2024-03-31.0
epoch JD2460400.5
perihelion date2022-10-11.65826
perihelion JD2459864.15826
argument of perihelion (°)330.86711
ascending node (°)86.21442
inclination (°)5.57583
eccentricity0.0610925
perihelion distance (AU)2.6073616
Tisserand w.r.t. Jupiter3.3
ΔV w.r.t. Earth (km/sec)10.2
semimajor axis (AU)2.7770164
mean anomaly (°)114.22937
mean daily motion (°/day)0.21297870
aphelion distance (AU)2.947
period (years)4.63
P-vector [x]0.54114662
P-vector [y]0.78913089
P-vector [z]0.29057320
Q-vector [x]-0.83532080
Q-vector [y]0.46459093
Q-vector [z]0.29392930
absolute magnitude16.69
phase slope0.15
uncertainty0
referenceMPEC 2024-F14
observations used355
oppositions15
arc length (days)10256
first opposition used1996
last opposition used2024
residual rms (arc-secs)0.73
perturbers coarse indicatorM-v
perturbers precise indicator003Ek
first observation date used1996-02-17.0
last observation date used2024-03-17.0
computer nameMPCLINUX
JD of orbit computation2456670.654380
perihelion JD uncertainty (days)1.9900E-04
argument of perihelion uncertainty (°)6.6208E-05
ascending node uncertainty (°)4.7795E-05
inclination uncertainty (°)3.8922E-06
eccentricity uncertainty 9.0691E-08
perihelion distance uncertainty (AU)2.5717E-07
Minimum Orbit Intersection Distances (in AU)
for orbit epoch: 2460400.5, reference: E2024-GH2
Mercury2.29364
Venus1.88566
Earth1.62157
Mars1.05192
Jupiter2.26914
Saturn6.40221
Uranus15.6119
Neptune27.1993

Observations

364 total observations over interval: 1996 02 17.42171 – 2024 03 17.390050
These data are available for download (format description).

Date (UT) J2000 RA J2000 Dec Magn Location Ref
1996 02 17.42171 10 34 33.01 +17 24 59.4 20.5 V 691 – Steward Observatory, Kitt Peak-Spacewatch MPS 269335
1996 02 17.44358 10 34 31.91 +17 25 07.5   691 – Steward Observatory, Kitt Peak-Spacewatch MPS 269335
1996 02 17.46587 10 34 30.74 +17 25 15.4   691 – Steward Observatory, Kitt Peak-Spacewatch MPS 269335
2001 03 19.332480 12 47 08.554 +04 01 21.92 20.78 V 645 – Apache Point-Sloan Digital Sky Survey MPS 269335
2001 03 19.335952 12 47 08.384 +04 01 23.09 21.52   645 – Apache Point-Sloan Digital Sky Survey MPS 269335
2001 04 16.177510 12 25 03.649 +06 02 40.06 20.99 V 645 – Apache Point-Sloan Digital Sky Survey MPS 269335
2001 04 16.180982 12 25 03.503 +06 02 40.61 21.51   645 – Apache Point-Sloan Digital Sky Survey MPS 269335
2004 12 13.394547 09 06 47.315 +20 33 17.66 21.25 V 645 – Apache Point-Sloan Digital Sky Survey MPS 390365
2004 12 13.398019 09 06 47.299 +20 33 18.33 21.89   645 – Apache Point-Sloan Digital Sky Survey MPS 390365
2005 01 13.32881 08 52 12.18 +22 59 01.4 20.9 V 691 – Steward Observatory, Kitt Peak-Spacewatch MPS 124849
2005 01 13.35478 08 52 10.85 +22 59 09.9 20.4 V 691 – Steward Observatory, Kitt Peak-Spacewatch MPS 124849
2005 01 13.38063 08 52 09.52 +22 59 18.8 20.7 V 691 – Steward Observatory, Kitt Peak-Spacewatch MPS 124849
2005 01 18.40586 08 47 48.88 +23 27 14.5 20.5 V 691 – Steward Observatory, Kitt Peak-Spacewatch MPS 124849
2005 01 18.43944 08 47 47.03 +23 27 25.7 20.4 V 691 – Steward Observatory, Kitt Peak-Spacewatch MPS 124849
2005 01 18.46606 08 47 45.52 +23 27 35.4 20.7 V 691 – Steward Observatory, Kitt Peak-Spacewatch MPS 124849
2006 04 30.20576 14 38 36.09 -08 59 23.2 20.9 V 691 – Steward Observatory, Kitt Peak-Spacewatch MPS 269335
2006 04 30.22311 14 38 35.18 -08 59 20.2 20.8 V 691 – Steward Observatory, Kitt Peak-Spacewatch MPS 269335
2006 04 30.24046 14 38 34.25 -08 59 16.9 20.6 V 691 – Steward Observatory, Kitt Peak-Spacewatch MPS 269335
2006 05 30.21870 14 15 56.30 -08 03 53.9 20.8 V G96 – Mt. Lemmon Survey MPS 269335
2006 05 30.22529 14 15 56.08 -08 03 53.8 21.2 V G96 – Mt. Lemmon Survey MPS 269335
2006 05 30.23193 14 15 55.87 -08 03 53.6 21.1 V G96 – Mt. Lemmon Survey MPS 269335
2006 05 30.23844 14 15 55.62 -08 03 53.3 21.0 V G96 – Mt. Lemmon Survey MPS 269335
2008 11 01.33582 03 53 31.16 +15 08 44.0 19.8 V G96 – Mt. Lemmon Survey MPS 269335
2008 11 01.34536 03 53 30.69 +15 08 43.2 20.0 V G96 – Mt. Lemmon Survey MPS 269335
2008 11 01.35494 03 53 30.22 +15 08 42.3 19.8 V G96 – Mt. Lemmon Survey MPS 269335
2008 11 01.36451 03 53 29.76 +15 08 41.6 20.0 V G96 – Mt. Lemmon Survey MPS 269335
2008 11 18.24419 03 38 23.67 +14 45 42.4 19.0 V 703 – Catalina Sky Survey MPS 266557
2008 11 18.25041 03 38 23.20 +14 45 42.4 19.7 V 703 – Catalina Sky Survey MPS 266557
2008 11 18.25673 03 38 22.99 +14 45 41.5 20.0 V 703 – Catalina Sky Survey MPS 266557
2008 11 18.26290 03 38 22.63 +14 45 41.3 20.1 V 703 – Catalina Sky Survey MPS 266557
2008 11 20.33709 03 36 24.12 +14 43 13.7 19.4 V G96 – Mt. Lemmon Survey MPS 266557
2008 11 20.34273 03 36 23.79 +14 43 13.3 19.5 V G96 – Mt. Lemmon Survey MPS 266557
2008 11 20.34833 03 36 23.47 +14 43 12.9 19.5 V G96 – Mt. Lemmon Survey MPS 266557
2008 11 20.35391 03 36 23.14 +14 43 12.5 19.5 V G96 – Mt. Lemmon Survey MPS 266557
2008 12 21.19435 03 13 24.85 +14 40 33.8 20.1 V G96 – Mt. Lemmon Survey MPS 270487
2008 12 21.19980 03 13 24.70 +14 40 34.1 20.3 V G96 – Mt. Lemmon Survey MPS 270487
2008 12 21.20524 03 13 24.60 +14 40 34.5 20.2 V G96 – Mt. Lemmon Survey MPS 270487
2008 12 21.21067 03 13 24.42 +14 40 35.1 19.8 V G96 – Mt. Lemmon Survey MPS 270487
2009 01 18.21649 03 12 52.30 +15 55 34.1 21.1 V G96 – Mt. Lemmon Survey MPS 272781
2009 01 18.22163 03 12 52.41 +15 55 34.9 20.8 V G96 – Mt. Lemmon Survey MPS 272781
2009 01 18.22683 03 12 52.48 +15 55 36.3 21.7 V G96 – Mt. Lemmon Survey MPS 272781
2009 01 18.23198 03 12 52.63 +15 55 37.4 21.1 V G96 – Mt. Lemmon Survey MPS 272781
2010 02 10.27941 11 28 20.95 +12 01 47.5   691 – Steward Observatory, Kitt Peak-Spacewatch MPS 313530
2010 02 10.29711 11 28 20.34 +12 01 53.8   691 – Steward Observatory, Kitt Peak-Spacewatch MPS 313530
2010 02 10.31479 11 28 19.70 +12 01 59.7   691 – Steward Observatory, Kitt Peak-Spacewatch MPS 313530
2010 02 13.440977 11 26 26.875 +12 20 47.45 21.46 g F51 – Pan-STARRS 1, Haleakala MPS 320569
2010 02 13.441729 11 26 26.803 +12 20 47.41 21.25 g F51 – Pan-STARRS 1, Haleakala MPS 320569
2010 02 13.449945 11 26 26.490 +12 20 50.66 21.67 g F51 – Pan-STARRS 1, Haleakala MPS 320569
2010 02 13.450686 11 26 26.481 +12 20 50.93 21.46 g F51 – Pan-STARRS 1, Haleakala MPS 320569
2010 02 18.26130 11 23 11.78 +12 50 31.5   691 – Steward Observatory, Kitt Peak-Spacewatch MPS 313530
2010 02 18.27901 11 23 11.00 +12 50 38.1   691 – Steward Observatory, Kitt Peak-Spacewatch MPS 313530
2010 02 18.29672 11 23 10.21 +12 50 44.8   691 – Steward Observatory, Kitt Peak-Spacewatch MPS 313530
2010 05 26.39124 10 54 24.64 +13 37 56.4   C51 – WISE MPS 330692
2010 05 26.65572 10 54 34.36 +13 36 23.2   C51 – WISE MPS 330692
2010 05 26.788021 10 54 39.30 +13 35 34.6   C51 – WISE MPS 330692
2010 05 26.788148 10 54 39.31 +13 35 35.2   C51 – WISE MPS 330692
2010 05 26.854237 10 54 41.78 +13 35 12.3   C51 – WISE MPS 330692
2010 05 26.920325 10 54 44.19 +13 34 48.2   C51 – WISE MPS 330692
2010 05 26.920453 10 54 44.28 +13 34 48.5   C51 – WISE MPS 330692
2010 05 26.986541 10 54 46.66 +13 34 25.1   C51 – WISE MPS 330692
2010 05 27.05263 10 54 49.16 +13 34 03.4   C51 – WISE MPS 330692
2010 05 27.11885 10 54 51.71 +13 33 38.8   C51 – WISE MPS 330692
2010 05 27.25115 10 54 56.67 +13 32 51.8   C51 – WISE MPS 330692
2010 05 27.38345 10 55 01.78 +13 32 02.4   C51 – WISE MPS 330692
2010 05 27.51575 10 55 06.75 +13 31 16.3   C51 – WISE MPS 330692
2010 05 27.64806 10 55 11.77 +13 30 28.5   C51 – WISE MPS 330692
2011 06 27.21087 16 22 14.91 -20 06 06.8 21.5 V G96 – Mt. Lemmon Survey MPS 386246
2011 06 27.21613 16 22 14.70 -20 06 07.3 21.8 V G96 – Mt. Lemmon Survey MPS 386246
2011 06 27.22135 16 22 14.41 -20 06 07.0 21.4 V G96 – Mt. Lemmon Survey MPS 386246
2011 06 27.22662 16 22 14.23 -20 06 07.4 21.8 V G96 – Mt. Lemmon Survey MPS 386246
2013 11 26.44461 07 03 39.40 +23 13 07.8 21.8 V 691 – Steward Observatory, Kitt Peak-Spacewatch MPS 489675
2013 11 26.45983 07 03 38.97 +23 13 09.4 21.0 V 691 – Steward Observatory, Kitt Peak-Spacewatch MPS 489675
2013 11 26.47266 07 03 38.73 +23 13 11.3 21.1 V 691 – Steward Observatory, Kitt Peak-Spacewatch MPS 489675
2013 12 26.38697 06 41 02.930 +24 50 04.41 20.0 w F51 – Pan-STARRS 1, Haleakala MPS 493187
2013 12 26.40240 06 41 01.973 +24 50 07.49 19.9 w F51 – Pan-STARRS 1, Haleakala MPS 493187
2013 12 26.41785 06 41 01.013 +24 50 10.47 19.9 w F51 – Pan-STARRS 1, Haleakala MPS 493187
2014 01 06.48204 06 29 54.747 +25 22 36.65 20.2 g F51 – Pan-STARRS 1, Haleakala MPS 496374
2014 01 06.49554 06 29 53.945 +25 22 38.35 20.6 g F51 – Pan-STARRS 1, Haleakala MPS 496374
2014 01 07.24741 06 29 10.19 +25 24 35.2 20.0 r G45 – Space Surveillance Telescope, Atom Site MPS 557673
2014 01 07.26964 06 29 08.86 +25 24 38.7 20.3 r G45 – Space Surveillance Telescope, Atom Site MPS 557673
2014 01 07.29609 06 29 07.27 +25 24 43.0 20.5 r G45 – Space Surveillance Telescope, Atom Site MPS 557673
2014 01 07.30953 06 29 06.47 +25 24 44.6 20.4 r G45 – Space Surveillance Telescope, Atom Site MPS 557673
2015 01 25.59564 13 35 23.518 -03 07 01.53 21.9 w F51 – Pan-STARRS 1, Haleakala MPS 569133
2015 01 25.60735 13 35 23.858 -03 07 02.33 22.0 w F51 – Pan-STARRS 1, Haleakala MPS 569133
2015 01 25.61884 13 35 24.235 -03 07 02.94 22.0 w F51 – Pan-STARRS 1, Haleakala MPS 569133
2015 01 25.63036 13 35 24.597 -03 07 03.66 21.9 w F51 – Pan-STARRS 1, Haleakala MPS 569133
2015 03 21.47875 13 31 27.694 -01 04 34.55 20.8 w F51 – Pan-STARRS 1, Haleakala MPS 594647
2015 03 21.49006 13 31 27.224 -01 04 31.24 20.8 w F51 – Pan-STARRS 1, Haleakala MPS 594647
2015 03 21.51265 13 31 26.280 -01 04 24.81 20.8 w F51 – Pan-STARRS 1, Haleakala MPS 594647
2015 03 22.45472 13 30 48.248 -00 59 55.35 20.8 w F51 – Pan-STARRS 1, Haleakala MPS 594647
2015 03 22.46635 13 30 47.755 -00 59 52.04 20.9 w F51 – Pan-STARRS 1, Haleakala MPS 594647
